Location: Banksville Park
(38.5557°N, 75.1182°W)
Time: 17:08:11
(UTC+00:00)

Cosmos 1536 - Pass Details

Date: 19 September 2020
Orbit: 540 x 558 km, 82.5° (Epoch: 30 October)

Event Time Altitude Azimuth Distance (km) Brightness Sun altitude
Rises 10:11:11 0° 344° (NNW) 2,751 6.3 -7.6°
Reaches altitude 10° 10:13:28 10° 336° (NNW) 1,851 5.3 -7.2°
Maximum altitude 10:17:14 38° 268° (W) 869 3.3 -6.4°
Drops below altitude 10° 10:20:59 10° 200° (SSW) 1,835 5.2 -5.7°
Sets 10:23:15 0° 192° (SSW) 2,723 6.2 -5.3°
